• In Belarus
  • List of Countries
  • For 7 days
  • Water Temperature
  • Satellite Maps
  • Weather Map
  • Weather Widgets
  • user-avatar
    Login

    Hourly Weather Kaprun

    Today, 21 June, Thursday

    Time Temperature Precipitation Wind Pressure Humidity
    00:00 +9°C° 0 mm 1 mps 601 mmHg 94%
    01:00 +8°C° 0 mm 2 mps 601 mmHg 93%
    02:00 +9°C° 0 mm 1 mps 601 mmHg 93%
    03:00 +9°C° 0 mm 1 mps 600 mmHg 94%
    04:00 +8°C° 0 mm 1 mps 600 mmHg 94%
    05:00 +10°C° 0 mm 1 mps 601 mmHg 89%
    06:00 +12°C° 0 mm 1 mps 601 mmHg 85%
    07:00 +14°C° 0 mm 1 mps 602 mmHg 78%
    08:00 +16°C° 0.4 mm 1 mps 602 mmHg 72%
    09:00 +18°C° 0.4 mm 1 mps 603 mmHg 66%
    10:00 +19°C° 0.4 mm 1 mps 603 mmHg 60%
    11:00 +19°C° 1 mm 1 mps 603 mmHg 60%
    12:00 +19°C° 1 mm 1 mps 603 mmHg 60%
    13:00 +21°C° 0 mm 1 mps 603 mmHg 55%
    14:00 +19°C° 1.7 mm 1 mps 602 mmHg 63%
    15:00 +18°C° 1.7 mm 1 mps 601 mmHg 71%
    16:00 +16°C° 1.7 mm 2 mps 601 mmHg 79%
    17:00 +15°C° 2 mm 2 mps 600 mmHg 84%
    18:00 +13°C° 2 mm 2 mps 600 mmHg 89%
    19:00 +12°C° 2 mm 2 mps 599 mmHg 93%
    20:00 +10°C° 1.3 mm 2 mps 599 mmHg 95%
    21:00 +9°C° 1.3 mm 2 mps 599 mmHg 96%
    22:00 +9°C° 1.3 mm 2 mps 599 mmHg 97%
    23:00 +8°C° 0.9 mm 2 mps 599 mmHg 98%

    Tomorrow, 22 June, Friday

    Time Temperature Precipitation Wind Pressure Humidity
    00:00 +8°C° 0.9 mm 2 mps 599 mmHg 98%
    01:00 +7°C° 0.9 mm 2 mps 599 mmHg 98%
    02:00 +6°C° 1.8 mm 2 mps 599 mmHg 98%
    03:00 +4°C° 1.8 mm 3 mps 598 mmHg 98%
    04:00 +3°C° 1.8 mm 3 mps 598 mmHg 98%
    05:00 +3°C° 0.8 mm 3 mps 598 mmHg 98%
    06:00 +3°C° 0.8 mm 3 mps 598 mmHg 97%
    07:00 +2°C° 0.8 mm 3 mps 598 mmHg 97%
    08:00 +3°C° 0.1 mm 3 mps 598 mmHg 92%
    09:00 +3°C° 0.1 mm 3 mps 599 mmHg 87%
    10:00 +4°C° 0.1 mm 3 mps 599 mmHg 81%
    11:00 +5°C° 0 mm 3 mps 600 mmHg 74%
    12:00 +7°C° 0 mm 3 mps 600 mmHg 67%
    13:00 +7°C° 0 mm 3 mps 601 mmHg 59%
    14:00 +7°C° 0.3 mm 3 mps 601 mmHg 63%
    15:00 +5°C° 0.3 mm 3 mps 600 mmHg 66%
    16:00 +5°C° 0.3 mm 3 mps 600 mmHg 70%
    17:00 +4°C° 0.3 mm 3 mps 600 mmHg 74%
    18:00 +3°C° 0.3 mm 3 mps 600 mmHg 78%
    19:00 +4°C° 0.3 mm 2 mps 600 mmHg 82%
    20:00 +3°C° 0.2 mm 2 mps 600 mmHg 86%
    21:00 +2°C° 0.2 mm 2 mps 600 mmHg 89%
    22:00 +1°C° 0.2 mm 2 mps 600 mmHg 92%
    23:00 -1°C° 0 mm 2 mps 600 mmHg 92%

    Day after tomorrow, 23 June, Saturday

    Time Temperature Precipitation Wind Pressure Humidity
    00:00 -1°C° 0 mm 2 mps 600 mmHg 92%
    01:00 -1°C° 0 mm 2 mps 600 mmHg 92%
    02:00 -2°C° 0 mm 2 mps 600 mmHg 93%
    03:00 -2°C° 0 mm 2 mps 599 mmHg 94%
    04:00 -2°C° 0 mm 2 mps 599 mmHg 94%
    05:00 -1°C° 0 mm 2 mps 600 mmHg 88%
    06:00 +1°C° 0 mm 2 mps 600 mmHg 82%
    07:00 +3°C° 0 mm 2 mps 601 mmHg 76%
    08:00 +4°C° 0 mm 2 mps 601 mmHg 67%
    09:00 +6°C° 0 mm 2 mps 602 mmHg 58%
    10:00 +8°C° 0 mm 2 mps 603 mmHg 49%
    11:00 +9°C° 0 mm 2 mps 603 mmHg 46%
    12:00 +10°C° 0 mm 3 mps 603 mmHg 44%
    13:00 +11°C° 0 mm 3 mps 603 mmHg 41%
    14:00 +10°C° 0 mm 3 mps 603 mmHg 44%
    15:00 +10°C° 0 mm 3 mps 602 mmHg 47%
    16:00 +10°C° 0 mm 3 mps 602 mmHg 49%
    17:00 +9°C° 0.1 mm 3 mps 601 mmHg 59%
    18:00 +7°C° 0.1 mm 3 mps 601 mmHg 68%
    19:00 +6°C° 0.1 mm 2 mps 600 mmHg 77%
    20:00 +5°C° 0.1 mm 2 mps 600 mmHg 83%
    21:00 +4°C° 0.1 mm 2 mps 600 mmHg 89%
    22:00 +3°C° 0.1 mm 1 mps 600 mmHg 94%
    23:00 +3°C° 0.2 mm 1 mps 600 mmHg 94%

    24 June, Sunday

    Time Temperature Precipitation Wind Pressure Humidity
    00:00 +3°C° 0.2 mm 1 mps 599 mmHg 94%
    01:00 +3°C° 0.2 mm 1 mps 599 mmHg 94%
    02:00 +3°C° 0.3 mm 1 mps 599 mmHg 95%
    03:00 +3°C° 0.3 mm 1 mps 599 mmHg 95%
    04:00 +3°C° 0.3 mm 1 mps 598 mmHg 96%
    05:00 +3°C° 0.5 mm 1 mps 599 mmHg 96%
    06:00 +3°C° 0.5 mm 1 mps 599 mmHg 96%
    07:00 +4°C° 0.5 mm 1 mps 599 mmHg 96%
    08:00 +4°C° 0.3 mm 1 mps 599 mmHg 92%
    09:00 +5°C° 0.3 mm 1 mps 600 mmHg 88%
    10:00 +5°C° 0.3 mm 2 mps 600 mmHg 84%
    11:00 +6°C° 0.3 mm 2 mps 600 mmHg 81%
    12:00 +6°C° 0.3 mm 2 mps 600 mmHg 78%
    13:00 +7°C° 0.3 mm 2 mps 600 mmHg 76%
    14:00 +7°C° 0.4 mm 2 mps 600 mmHg 76%
    15:00 +7°C° 0.4 mm 2 mps 600 mmHg 77%
    16:00 +7°C° 0.4 mm 2 mps 600 mmHg 77%
    17:00 +7°C° 0.3 mm 2 mps 599 mmHg 81%
    18:00 +6°C° 0.3 mm 2 mps 599 mmHg 85%
    19:00 +6°C° 0.3 mm 1 mps 599 mmHg 89%
    20:00 +5°C° 0.1 mm 1 mps 599 mmHg 92%
    21:00 +4°C° 0.1 mm 1 mps 599 mmHg 94%
    22:00 +3°C° 0.1 mm 1 mps 598 mmHg 97%
    23:00 +3°C° 0 mm 1 mps 598 mmHg 97%

    25 June, Monday

    Time Temperature Precipitation Wind Pressure Humidity
    00:00 +3°C° 0 mm 1 mps 598 mmHg 97%
    01:00 +3°C° 0 mm 1 mps 598 mmHg 97%
    02:00 +2°C° 0 mm 1 mps 598 mmHg 97%
    03:00 +2°C° 0 mm 1 mps 597 mmHg 97%
    04:00 +2°C° 0 mm 1 mps 597 mmHg 97%
    05:00 +3°C° 0 mm 1 mps 598 mmHg 94%
    06:00 +4°C° 0 mm 1 mps 598 mmHg 91%
    07:00 +5°C° 0 mm 1 mps 599 mmHg 89%
    08:00 +6°C° 0.1 mm 1 mps 599 mmHg 81%
    09:00 +6°C° 0.1 mm 2 mps 600 mmHg 74%
    10:00 +8°C° 0.1 mm 2 mps 600 mmHg 67%
    11:00 +8°C° 0.4 mm 2 mps 600 mmHg 66%
    12:00 +9°C° 0.4 mm 2 mps 600 mmHg 65%
    13:00 +9°C° 0.4 mm 2 mps 601 mmHg 64%
    14:00 +9°C° 0.8 mm 2 mps 600 mmHg 67%
    15:00 +9°C° 0.8 mm 2 mps 600 mmHg 70%
    16:00 +8°C° 0.8 mm 2 mps 600 mmHg 74%
    17:00 +8°C° 0.5 mm 2 mps 600 mmHg 77%
    18:00 +7°C° 0.5 mm 2 mps 600 mmHg 81%
    19:00 +7°C° 0.5 mm 1 mps 600 mmHg 85%
    20:00 +6°C° 0 mm 1 mps 599 mmHg 89%
    21:00 +4°C° 0 mm 1 mps 599 mmHg 92%
    22:00 +1°C° 0 mm 2 mps 598 mmHg 96%
    23:00 +1°C° 0 mm 2 mps 598 mmHg 96%

    26 June, Tuesday

    Time Temperature Precipitation Wind Pressure Humidity
    00:00 +1°C° 0 mm 2 mps 598 mmHg 95%
    01:00 -1°C° 0 mm 2 mps 598 mmHg 95%
    02:00 -1°C° 0 mm 2 mps 598 mmHg 94%
    03:00 -1°C° 0 mm 2 mps 598 mmHg 93%
    04:00 -2°C° 0 mm 2 mps 597 mmHg 92%
    05:00 +2°C° 0 mm 1 mps 598 mmHg 87%
    06:00 +4°C° 0 mm 1 mps 599 mmHg 82%
    07:00 +6°C° 0 mm 1 mps 600 mmHg 77%
    08:00 +8°C° 0 mm 1 mps 601 mmHg 68%
    09:00 +10°C° 0 mm 1 mps 601 mmHg 59%
    10:00 +12°C° 0 mm 2 mps 602 mmHg 50%
    11:00 +12°C° 0 mm 2 mps 602 mmHg 50%
    12:00 +13°C° 0 mm 2 mps 602 mmHg 50%
    13:00 +13°C° 0 mm 2 mps 602 mmHg 50%
    14:00 +13°C° 0.2 mm 2 mps 602 mmHg 53%
    15:00 +13°C° 0.2 mm 2 mps 601 mmHg 56%
    16:00 +13°C° 0.2 mm 2 mps 601 mmHg 60%
    17:00 +12°C° 0.3 mm 2 mps 601 mmHg 68%
    18:00 +10°C° 0.3 mm 2 mps 601 mmHg 76%
    19:00 +9°C° 0.3 mm 2 mps 601 mmHg 84%
    20:00 +8°C° 0.1 mm 1 mps 600 mmHg 88%
    21:00 +7°C° 0.1 mm 1 mps 600 mmHg 92%
    22:00 +5°C° 0.1 mm 1 mps 600 mmHg 96%
    23:00 +5°C° 0 mm 1 mps 599 mmHg 96%
    Show more